カタログに戻る

LES 6

運用中軍事GEO
NORAD 3431·PAYLOAD·🇺🇸 United States

打ち上げ Sep 26, 1968 から Cape Canaveral Space Force Station

Loading…

TLE

最新Source: Space-Track

元期: Sep 14, 2026, 13:15 UTC

1 03431U 68081D   26257.55235079 -.00000044  00000-0  00000-0 0  9991
2 03431   1.7056  44.4976 0007753 289.8432 102.6558  1.00349706121689

AllMySatでLES 6をリアルタイム追跡

Download on the App Store